星链-2501 (STARLINK-2501 )

导读 | 星芒AI

STARLINK-2501 是 SpaceX Starlink 卫星互联网项目中的第2501颗卫星,属于“星链”计划的第二代卫星群。该卫星于2024年发射,旨在增强全球宽带网络覆盖,提升互联网接入速度与稳定性。它运行在低地球轨道,配备先进通信设备,支持高速、低延迟的数据传输,主要服务于偏远及网络基础设施薄弱地区。Starlink 计划最终目标是构建由数千颗卫星组成的全球网络系统,推动全球互联网普及。

基本信息
目录编号:
48330
目录名称:
STARLINK-2501
国际标识:
2021-036BG
轨道中心:
EARTH
卫星名称:
星链-2501
卫星全名:
星链-2501 (STARLINK-2501 )
卫星状态:
在轨 (已飞行1694 天)
发射日期:
2021-04-29 UTC
国别 :
美国 (US)
星等 :
--
轨道信息
数据来源 国际轨道数据
星历时间: 2025-12-17T22:38:51+0800
12小时前
查看轨道信息
半长轴: 6925.321km
偏心率: 0.0001223
轨道倾角: 53.055°
近地点辐角 84.273°
升交点赤经 110.086°
平近点角 275.840°
近地点: 546.339km
远地点: 548.033km
周期: 95.592分钟
每日圈数: 15.06409
详细信息
固有亮度:
5
最大亮度:
2.5
卫星平台:
Starlink V1.0
覆盖范围:
全球
运营商:
太空探索技术公司
运营商所在国:
美国
制造商(研发单位):
太空探索技术公司
制造商所在国:
美国
使用方式:
暂无
卫星简介
星链(Starlink)计划是由太空探索技术公司(SpaceX)提出的一个巨型低轨卫星互联网星座项目,计划在2019年至2024年间在太空搭建由约1.2万颗卫星组成的“星链”网络,其中1584颗将部署在地球上空550千米处的近地轨道,并从2020年开始工作。该卫星仍在工作。
2D轨道图
3D轨道图
轨道高度分析图
轨道倾角分析图
轨道综合分析图
查看轨道综合分析图